sat.trackr.live / text

‹ back to catalog

STARLINK-31719

NORAD 59495 · 2024-071M

PAYLOAD ACTIVE UNKNOWN

§ Identity

Operator
Country
US
Launch date
2024-04-13
Launch site
AFETR
Launch vehicle
Mass (kg)
RCS (m²)

Purposes: comms

External: N2YO · Heavens-Above · Gunter

§ Orbital elements

Epoch: 2026-09-20T20:58:33.639744Z

Period
94.27 min
Inclination
43.0038°
Eccentricity
0.0001240
Mean motion
15.27575188 rev/d
Perigee alt
482.2 km
Apogee alt
483.9 km
Semi-major
6,861.2 km
B*
2.9480e-5
RAAN
317.6953°
Arg perigee
269.0930°
Mean anomaly
90.9780°
Rev number
13,805

§ Raw data

STARLINK-317191 59495U 24071M   26263.87400046  .00000549  00000+0  29480-4 0  99982 59495  43.0038 317.6953 0001240 269.0930  90.9780 15.27575188138051

JSON: /api/v1/satellites/59495 · /tle

For live sub-satellite position, see the globe view (requires WebGL).

§ Visibility from observer

Set your observer location to see the next 7 days of passes ≥ 10°. The values pass through the URL so the page stays shareable.

No JS? Fill the form by hand. The geolocation button needs JavaScript.